Weather in Krylovo

Russia / Kaliningrad Oblast     54°19′51″N   21°33′07″E
temp.,
°C
wind,
m/s
gust,
m/s
humid.,
%
clouds,
%
prec.,
mm/h
press.,
hPa
HPBL,
m
17 june, thu
thu1723:00+12e22855 0.0 102119
02:00+11ese33910 0.0 102233
05:00+11se34890 0.0 102250
08:00+17se34760 0.0 1022309
11:00+22sse45635 0.0 10231006
14:00+24se45556 0.0 10221353
17:00+24se35635 0.0 10221038
20:00+20se36792 0.0 102298
18 june, fri
fri1823:00+16se49824 0.0 1023125
02:00+15se47864 0.0 1022111
05:00+14se48905 0.0 1022137
08:00+20sse57775 0.0 1022309
11:00+24sse566618 0.0 10211061
14:00+26sse57585 0.0 10211715
17:00+26se57675 0.0 1020873
20:00+22se510815 0.0 1020249
19 june, sat
sat1923:00+18se49865 0.0 1020131
02:00+16sse49915 0.0 1020145
05:00+16sse48895 0.0 1020146
08:00+21sse47760 0.0 1020301
11:00+25sse46650 0.0 10191095
14:00+27sse56575 0.0 10181860
17:00+27se466527 0.0 10171265
20:00+23sse4107569 0.0 1017225
20 june, sun
sun2023:00+20sse411860 0.0 1018203
02:00+18sse49920 0.0 1018157
05:00+18sse499324 0.0 1018197
08:00+22sse57795 0.0 1017380
11:00+26sse45675 1.0 1017998
14:00+27se4555100 1.1 10161815
17:00+26se5768100 0.0 1015621
20:00+22se388210 0.0 1015176
21 june, mon
mon2123:00+20se410862 0.0 1015170
02:00+18se49920 0.0 1015153
05:00+18se37940 0.0 1014138
08:00+23se59780 0.0 1014408
11:00+27se68640 0.0 10131219
14:00+28se57540 0.0 10121945
17:00+28se47620 0.0 10121375
20:00+24se410770 0.0 1011282